Showing default

GARAI-B, 68463

Orbit data source: Space-Track

GARAI-B, 68463 is a payload satellite owned by Satlantis (SE) in SSO that was launched on Mon, 30 Mar 2026 UTC via an FALCON 9 launch vehicle from the Air Force Western Test Range (AFWTR). Payload-class satellites include a variety of spacecraft equipped with specific instruments for various scientific and technological missions. These include communications satellites like Starlink; space stations such as the ISS; scientific satellites like the Hubble; Earth observation satellites from companies like Planet Labs, Umbra, and HawkEye 360; GPS; miniature CubeSats for education and research; and military/defense satellites.

Loading next visibility...
Identifier
68463, 2026-067AZ
Orbit
SSO
Country
Flag of SESE / SWED
Related business
Manufacturer
OHB-SE
Mission
Operational spacecraft
Bus & Motor
INNOSAT, Unknown motor
Mass
115 kg wet, 115 kg dry
Launch date (UTC)
2026-03-30 (1 month ago)
Launch vehicle
FALCON 9
Launch site
Air Force Western Test Range (AFWTR)
Object type
Payload
Rocket body
Debris
Shape & HBR
Unknown shape, 14.5 m
Radar Cross Section
RCS unknown

Expand to show TLE details & history
Last TLE update: 10 hours ago

TLE from 10 hours ago
0 GARAI-B
1 68463U 26067AZ  26127.15820595  .00005801  00000-0  29320-3 0  9994
2 68463  97.4519  86.1921 0003029 178.5153 181.6090 15.17442026  5715
Epoch: 2026-05-07T03:47Z
TLE epoch observation values (Epoch: 2026-05-07T03:47:48.994Z)
Latitude
-0.00001°
Longitude
164.2296°
Altitude
518.747 km
Speed
7.603 km/s
True Right ascension
05h 44m 46s
True Declination
0° 00' 00"
Sunlit
Object was in daylight at epoch
Visualization orbit readout
Latitude
Unknown
Longitude
Unknown
Altitude
Unknown
Speed
Unknown
Apparent Right ascension
Unknown
Apparent Declination
Unknown
Sunlit
N/A
Visualization observer readout
Local Sidereal Time
22:03:50
Azimuth
Unknown
Elevation
Unknown
Doppler factor
Unknown
Orbital elements
Apogee altitude
512.633 km
Perigee altitude
508.459 km
Semi-major axis
6,888.683 km
Eccentricity
0.0003
Inclination
97.4519°
RAAN
86.1921°
Arg. of periapsis
178.5153°
True anomaly
181.60803°
Mean anomaly
181.609°
Eccentric anomaly
181.60851°
Mean motion
3.79611 °/min
Orbital period
94.83 mins
BSTAR
0.0002932
Loading maneuver chart data...
Computing Atmospheric mass density...
Loading historical data...
Loading historical data...
Loading historical data...
Loading historical data...
Loading historical data...
Loading historical data...
Loading historical data...

Documentation

Showing up to 5 results
|